CAPE
0 0 0 0 0 0 0 0 0 0 0 0 0 79 201 302 755 234 679 668 1468 1984 2453 2827 3094 2769 2049 1605 1587 1728 1451 1168 942 1066 953 910 746 573 421 355 539 969 1000 695 304 105 57 35 87
0 0 0 0 0 0 0 0 0 0 0 0 0 5 18 428 845 1221 471 1407 1574 2016 2317 2494 3150 2928 2607 2037 1773 1539 1562 1387 1087 1383 1258 1411 1066 778 437 387 733 1060 989 651 285 156 64 59 123
0 0 0 0 0 0 0 0 0 0 0 0 0 0 79 376 1033 797 772 1559 1726 2020 2123 2375 3151 2955 2717 2339 1727 1398 1371 1829 1175 1787 1784 1500 1459 1007 643 527 829 1091 857 624 353 201 76 35 65
0 0 0 0 0 0 0 0 0 0 0 0 0 265 439 389 493 847 407 1547 1842 1863 1992 2746 3165 3035 2742 2146 1730 1794 1589 2066 1530 1488 1915 1645 1567 1324 943 599 875 1127 954 695 414 241 103 32 26
0 0 0 0 0 0 0 0 0 0 0 0 2 557 673 563 635 636 83 1554 1640 1646 2044 2624 3202 3030 2750 2407 1961 2106 1762 2323 1808 1812 2107 1867 1685 1698 1272 787 814 1036 1008 812 548 311 141 43 8
0 0 0 0 0 0 0 0 0 0 0 0 3 328 640 534 575 547 116 662 1386 1281 1991 2553 3179 3233 3229 2606 2460 2139 1934 2265 2174 2267 2088 1805 1747 1753 1692 1190 904 1013 936 1032 741 464 234 69 5
0 0 0 0 0 0 0 0 0 0 0 0 0 152 116 336 333 87 45 0 1121 1451 2063 2418 2807 3042 3158 2820 2717 2836 2640 2571 2534 2037 1644 1870 1957 1827 1918 1613 1176 997 1128 1152 1030 681 379 155 50
0 0 0 0 0 0 0 0 0 0 0 0 0 0 0 0 225 107 0 0 1549 1967 2127 2194 2505 2631 2434 2266 2694 2871 2923 2761 2796 2301 1865 1933 2179 2237 1924 1809 1565 1102 1256 1040 977 1077 743 358 171
0 0 0 0 0 0 0 0 0 0 0 0 0 0 0 0 0 217 191 40 1307 1931 2045 2244 2253 2267 1987 1758 2275 2707 2850 2929 2660 2255 2195 1961 1401 1450 1660 1614 1643 1529 1235 1321 1024 941 1022 793 569
0 0 0 0 0 0 0 0 0 0 0 0 0 0 0 0 0 0 8 265 354 1446 1772 1921 1910 1853 1563 1840 1829 2204 2019 2134 1923 1679 1383 1268 1001 947 1453 1590 1861 1735 1521 1502 1193 985 1093 871 280
0 0 0 0 0 0 0 0 0 0 0 0 0 0 0 0 0 0 0 0 2 72 466 1508 1421 1364 1192 1441 1548 1803 1589 1511 1460 1278 962 785 819 544 738 1059 1351 1124 1403 902 987 840 696 648 210
0 0 0 0 0 0 0 0 0 0 0 0 0 0 0 0 0 0 0 0 0 0 0 516 903 1041 772 716 1017 1120 1151 1094 1079 997 749 462 325 45 44 761 760 704 700 541 563 279 157 123 56
0 0 0 0 0 0 0 0 0 0 0 0 0 0 0 0 0 0 0 0 0 0 0 0 507 232 410 350 687 819 916 930 727 506 550 279 111 6 36 389 562 486 291 430 348 233 30 0 0
0 0 0 0 0 0 0 0 0 0 0 0 0 0 0 0 0 0 0 0 0 0 0 0 0 0 309 244 663 841 839 735 551 387 387 273 252 133 219 621 545 445 345 255 229 274 37 0 0
0 0 0 0 0 0 0 0 0 0 0 0 0 0 0 0 0 0 0 0 0 0 0 0 0 0 0 24 507 692 552 532 509 524 509 649 487 446 518 657 609 519 422 188 187 35 0 0 0
0 0 0 0 0 0 0 0 0 0 0 0 0 0 0 0 0 0 0 0 0 0 0 0 0 0 0 0 0 524 845 960 801 685 689 923 736 437 414 365 507 457 184 189 168 46 0 0 2
0 0 0 0 0 0 0 0 0 0 0 0 0 0 0 0 0 0 0 0 0 0 0 0 0 0 0 0 0 0 64 43 172 623 716 880 960 747 365 198 334 301 182 145 121 124 34 2 67
0 0 0 0 0 0 0 0 0 0 0 0 0 0 0 0 0 0 0 0 0 0 0 0 0 0 0 0 0 0 0 0 0 320 697 745 875 831 479 419 430 230 135 89 128 179 36 63 122
0 0 0 0 0 0 0 0 0 0 0 0 0 0 0 0 0 0 0 0 0 0 0 0 0 0 0 0 0 0 0 0 0 550 588 822 739 142 454 435 373 182 176 174 141 62 91 0 0
0 0 0 0 0 0 0 0 0 0 0 0 0 0 0 0 0 0 0 0 0 0 0 0 0 0 0 0 0 0 1 0 0 53 580 608 77 234 396 568 353 255 33 76 93 19 0 0 0
0 0 0 0 0 0 0 0 0 0 0 0 0 0 0 0 0 0 0 0 0 0 0 0 0 0 0 0 0 0 1 0 18 252 375 0 97 19 140 541 316 257 244 112 118 29 4 3 0
0 0 0 0 0 0 0 0 0 0 0 0 0 0 0 0 0 0 0 0 0 0 0 0 0 0 0 0 0 0 2 1 0 8 366 30 141 35 1 0 0 0 13 177 79 27 0 0 0
0 0 0 0 0 0 0 0 0 0 0 0 0 0 0 0 0 0 0 0 0 0 0 0 0 0 0 0 0 0 18 2 2 62 535 115 40 0 0 0 0 15 174 122 29 8 0 0 0
0 0 0 0 0 0 0 0 0 0 0 0 0 0 0 0 0 0 0 0 0 0 0 0 0 0 0 0 0 0 15 95 106 133 529 325 1 0 7 75 321 380 257 118 50 35 21 0 0
0 0 0 0 0 0 0 0 0 0 0 0 0 0 0 0 0 0 0 0 0 0 0 0 0 0 0 0 0 0 0 101 232 404 569 283 184 57 234 257 386 290 129 93 60 76 73 0 0
0 0 0 0 0 0 0 0 0 0 0 0 0 0 0 0 0 0 0 0 0 0 0 0 0 0 0 0 0 0 0 81 231 463 266 349 161 101 107 97 17 141 196 121 72 23 0 0 0
0 0 0 0 0 0 0 0 0 0 0 0 0 0 0 0 0 0 0 0 0 0 0 0 0 0 0 0 0 0 0 1 287 220 1 0 0 51 104 18 8 74 53 40 8 4 0 0 0
0 0 0 0 18 19 0 0 18 9 0 0 0 0 0 0 0 0 0 0 0 0 0 0 0 0 0 0 0 0 0 4 481 188 12 1 0 28 0 68 30 113 36 41 14 0 0 0 0
0 0 0 0 19 56 13 0 11 2 0 0 0 0 0 0 0 0 0 0 0 0 0 0 0 0 0 0 0 0 0 23 318 344 37 2 0 2 0 46 77 33 11 24 13 0 0 0 0
0 0 0 23 0 0 6 0 59 0 0 0 0 0 0 0 0 0 0 0 0 0 0 0 0 0 0 0 0 0 0 0 0 360 211 51 3 0 0 21 14 9 16 6 10 0 0 0 0
CIN
-0 -0 -0 -0 -0 -0 -0 -0 -0 -0 -0 -0 -0 -164 -120 -116 -66 -71 -282 -298 -194 -74 -15 -0 -0 -0 -0 -1 -0 -0 -3 -14 -32 -5 -1 -0 -1 -2 -10 -14 -1 -1 -0 -0 -1 -31 -44 -48 -18
-0 -0 -0 -0 -0 -0 -0 -0 -0 -0 -0 -0 -0 -138 -342 -110 -175 -191 -269 -192 -162 -65 -9 -0 -0 -0 -0 -0 -0 -0 -2 -2 -8 -0 -0 -0 -0 -9 -32 -19 -2 -0 -0 -0 -3 -13 -26 -18 -8
-0 -0 -0 -0 -0 -0 -0 -0 -0 -0 -0 -0 -0 -0 -341 -167 -187 -244 -334 -253 -186 -112 -74 -18 -0 -0 -0 -0 -16 -32 -21 -0 -10 -0 -0 -0 -0 -0 -15 -16 -0 -0 -1 -0 -9 -17 -37 -41 -41
-0 -0 -0 -0 -0 -0 -0 -0 -0 -0 -0 -0 -0 -209 -237 -269 -202 -220 -436 -245 -202 -173 -134 -23 -0 -0 -0 -5 -13 -4 -6 -0 -6 -2 -0 -0 -0 -0 -0 -3 -0 -0 -0 -0 -3 -14 -26 -57 -73
-0 -0 -0 -0 -0 -0 -0 -0 -0 -0 -0 -0 -5 -118 -104 -183 -221 -254 -579 -205 -204 -185 -107 -17 -0 -0 -0 -1 -12 -5 -12 -0 -0 -0 -0 -0 -0 -0 -0 -0 -0 -0 -0 -0 -0 -6 -40 -91 -131
-0 -0 -0 -0 -0 -0 -0 -0 -0 -0 -0 -0 -12 -228 -124 -206 -215 -243 -539 -336 -196 -232 -133 -53 -0 -0 -0 -0 -0 -0 -0 -0 -0 -0 -0 -0 -0 -0 -0 -3 -0 -0 -0 -0 -0 -7 -25 -74 -41
-0 -0 -0 -0 -0 -0 -0 -0 -0 -0 -0 -0 -0 -317 -199 -234 -276 -437 -553 -0 -237 -202 -128 -63 -8 -0 -0 -0 -0 -0 -0 -0 -0 -0 -0 -0 -0 -0 -0 -0 -0 -0 -0 -1 -0 -1 -19 -45 -96
-0 -0 -0 -0 -0 -0 -0 -0 -0 -0 -0 -0 -0 -0 -0 -0 -296 -399 -0 -0 -178 -124 -106 -93 -48 -20 -20 -12 -0 -0 -0 -0 -0 -0 -0 -0 -0 -0 -0 -0 -0 -0 -0 -0 -0 -0 -3 -21 -45
-0 -0 -0 -0 -0 -0 -0 -0 -0 -0 -0 -0 -0 -0 -0 -0 -0 -234 -315 -573 -132 -106 -115 -99 -85 -67 -83 -87 -17 -0 -0 -0 -0 -0 -0 -0 -8 -7 -4 -4 -2 -0 -0 -0 -0 -0 -1 -12 -27
-0 -0 -0 -0 -0 -0 -0 -0 -0 -0 -0 -0 -0 -0 -0 -0 -0 -0 -167 -175 -186 -140 -144 -139 -135 -130 -130 -72 -75 -18 -16 -2 -4 -9 -29 -21 -39 -45 -11 -6 -1 -0 -0 -0 -0 -0 -4 -20 -65
-0 -0 -0 -0 -0 -0 -0 -0 -0 -0 -0 -0 -0 -0 -0 -0 -0 -0 -0 -0 -10 -202 -226 -134 -191 -192 -189 -134 -109 -64 -69 -65 -63 -79 -91 -83 -57 -94 -58 -24 -9 -14 -7 -22 -13 -16 -30 -38 -86
-0 -0 -0 -0 -0 -0 -0 -0 -0 -0 -0 -0 -0 -0 -0 -0 -0 -0 -0 -0 -0 -0 -0 -198 -154 -192 -231 -205 -182 -148 -119 -122 -125 -135 -145 -166 -185 -332 -291 -46 -56 -53 -45 -52 -44 -83 -101 -103 -92
-0 -0 -0 -0 -0 -0 -0 -0 -0 -0 -0 -0 -0 -0 -0 -0 -0 -0 -0 -0 -0 -0 -0 -0 -191 -251 -207 -237 -192 -182 -170 -160 -184 -189 -170 -221 -254 -322 -298 -127 -87 -95 -104 -72 -72 -80 -152 -0 -0
-0 -0 -0 -0 -0 -0 -0 -0 -0 -0 -0 -0 -0 -0 -0 -0 -0 -0 -0 -0 -0 -0 -0 -0 -0 -0 -182 -188 -138 -152 -145 -163 -185 -201 -198 -221 -184 -240 -172 -102 -128 -142 -124 -121 -113 -95 -125 -0 -0
-0 -0 -0 -0 -0 -0 -0 -0 -0 -0 -0 -0 -0 -0 -0 -0 -0 -0 -0 -0 -0 -0 -0 -0 -0 -0 -0 -24 -109 -118 -153 -133 -123 -157 -167 -137 -151 -134 -105 -110 -114 -151 -120 -155 -144 -179 -0 -0 -0
-0 -0 -0 -0 -0 -0 -0 -0 -0 -0 -0 -0 -0 -0 -0 -0 -0 -0 -0 -0 -0 -0 -0 -0 -0 -0 -0 -0 -0 -90 -62 -79 -98 -76 -139 -95 -115 -151 -151 -124 -120 -140 -162 -134 -140 -198 -0 -0 -34
-0 -0 -0 -0 -0 -0 -0 -0 -0 -0 -0 -0 -0 -0 -0 -0 -0 -0 -0 -0 -0 -0 -0 -0 -0 -0 -0 -0 -0 -0 -223 -99 -167 -104 -120 -137 -108 -98 -156 -160 -136 -178 -197 -172 -146 -170 -193 -72 -97
-0 -0 -0 -0 -0 -0 -0 -0 -0 -0 -0 -0 -0 -0 -0 -0 -0 -0 -0 -0 -0 -0 -0 -0 -0 -0 -0 -0 -0 -0 -0 -0 -0 -189 -149 -166 -150 -136 -157 -147 -142 -179 -187 -205 -131 -121 -159 -111 -53
-0 -0 -0 -0 -0 -0 -0 -0 -0 -0 -0 -0 -0 -0 -0 -0 -0 -0 -0 -0 -0 -0 -0 -0 -0 -0 -0 -0 -0 -0 -0 -0 -0 -209 -214 -158 -190 -307 -171 -163 -137 -191 -165 -175 -150 -159 -110 -0 -0
-0 -0 -0 -0 -0 -0 -0 -0 -0 -0 -0 -0 -0 -0 -0 -0 -0 -0 -0 -0 -0 -0 -0 -0 -0 -0 -0 -0 -0 -0 -1 -0 -0 -371 -217 -210 -390 -276 -190 -142 -127 -155 -162 -154 -134 -223 -0 -0 -0
-0 -0 -0 -0 -0 -0 -0 -0 -0 -0 -0 -0 -0 -0 -0 -0 -0 -0 -0 -0 -0 -0 -0 -0 -0 -0 -0 -0 -0 -0 -1 -0 -188 -209 -258 -0 -369 -506 -296 -142 -163 -167 -94 -54 -62 -245 -261 -75 -0
-0 -0 -0 -0 -0 -0 -0 -0 -0 -0 -0 -0 -0 -0 -0 -0 -0 -0 -0 -0 -0 -0 -0 -0 -0 -0 -0 -0 -0 -0 -0 -0 -0 -392 -193 -430 -330 -344 -480 -60 -0 -0 -192 -15 -74 -229 -0 -0 -0
-0 -0 -0 -0 -0 -0 -0 -0 -0 -0 -0 -0 -0 -0 -0 -0 -0 -0 -0 -0 -0 -0 -0 -0 -0 -0 -0 -0 -0 -0 -192 -12 -0 -326 -152 -329 -355 -0 -0 -0 -0 -272 -60 -64 -113 -238 -0 -0 -0
-0 -0 -0 -0 -0 -0 -0 -0 -0 -0 -0 -0 -0 -0 -0 -0 -0 -0 -0 -0 -0 -0 -0 -0 -0 -0 -0 -0 -0 -0 -198 -182 -204 -231 -109 -200 -72 -0 -402 -237 -101 -32 -44 -66 -106 -207 -188 -0 -0
-0 -0 -0 -0 -0 -0 -0 -0 -0 -0 -0 -0 -0 -0 -0 -0 -0 -0 -0 -0 -0 -0 -0 -0 -0 -0 -0 -0 -0 -0 -0 -171 -150 -89 -66 -192 -218 -295 -157 -74 -21 -18 -44 -52 -119 -167 -161 -0 -0
-0 -0 -0 -0 -0 -0 -0 -0 -0 -0 -0 -0 -0 -0 -0 -0 -0 -0 -0 -0 -0 -0 -0 -0 -0 -0 -0 -0 -0 -0 -0 -174 -157 -65 -152 -176 -237 -269 -191 -141 -97 -60 -11 -9 -60 -232 -0 -0 -0
-0 -0 -0 -0 -0 -0 -0 -0 -0 -0 -0 -0 -0 -0 -0 -0 -0 -0 -0 -0 -0 -0 -0 -0 -0 -0 -0 -0 -0 -0 -0 -41 -131 -166 -20 -0 -23 -279 -194 -264 -100 -36 -6 -45 -94 -246 -0 -0 -0
-0 -0 -0 -0 -1 -1 -0 -0 -26 -51 -0 -0 -0 -0 -0 -0 -0 -0 -0 -0 -0 -0 -0 -0 -0 -0 -0 -0 -0 -0 -0 -132 -49 -151 -295 -24 -0 -262 -0 -166 -178 -63 -51 -47 -68 -85 -0 -0 -0
-0 -0 -0 -0 -16 -1 -2 -0 -76 -20 -0 -0 -0 -0 -0 -0 -0 -0 -0 -0 -0 -0 -0 -0 -0 -0 -0 -0 -0 -0 -0 -194 -67 -55 -220 -205 -0 -64 -0 -109 -80 -117 -107 -68 -38 -16 -0 -0 -0
-0 -0 -0 -5 -0 -1 -3 -0 -40 -0 -0 -0 -0 -0 -0 -0 -0 -0 -0 -0 -0 -0 -0 -0 -0 -0 -0 -0 -0 -0 -0 -12 -0 -24 -52 -150 -126 -0 -0 -101 -40 -11 -9 -53 -32 -0 -0 -0 -0
Wind_Speed
6 4 3 6 5 5 2 3 1 2 2 1 4 8 6 3 2 2 2 5 11 11 10 11 13 12 12 11 10 11 11 11 12 11 11 11 10 8 7 6 6 8 11 11 10 9 8 9 9
3 2 5 3 6 4 4 5 3 1 2 1 3 4 4 3 3 2 5 8 13 12 9 9 14 12 11 11 11 9 9 10 10 9 11 12 11 10 9 8 6 8 10 10 9 8 7 8 8
3 2 4 5 4 3 3 3 3 3 5 2 3 6 3 2 2 7 5 16 14 12 12 12 16 15 15 14 13 12 12 12 10 8 10 10 10 10 10 9 8 8 9 10 9 7 6 6 7
2 5 5 5 2 4 6 5 2 5 9 5 3 6 3 3 6 7 7 15 14 13 13 16 18 17 15 14 13 12 12 13 12 11 10 8 8 8 8 8 7 8 10 10 8 6 5 4 6
4 3 4 2 3 2 1 3 2 4 4 6 4 2 2 4 5 7 8 12 11 10 9 12 17 16 16 15 15 14 13 14 12 11 10 10 9 9 8 7 8 6 9 10 9 6 4 2 5
4 3 4 0 2 2 2 4 3 3 3 1 4 3 1 2 7 8 8 10 11 12 11 12 17 18 16 15 13 13 12 13 12 12 12 11 10 11 11 10 7 7 6 10 9 8 5 1 3
5 4 3 2 3 2 2 5 3 2 3 3 2 3 2 4 9 8 10 8 11 11 11 10 11 14 17 16 15 14 14 14 13 12 11 10 9 10 11 12 11 9 7 7 9 8 7 4 2
5 4 2 2 2 1 4 2 2 2 3 6 5 4 4 6 6 7 5 6 7 10 10 10 10 11 10 9 14 13 13 13 14 12 10 9 8 10 11 11 11 10 9 8 7 8 7 6 5
4 5 1 2 1 2 4 4 6 4 3 5 5 4 4 2 3 3 4 4 5 7 10 10 11 11 10 9 9 14 14 13 12 10 10 8 4 4 5 7 11 12 12 12 10 8 9 8 7
5 3 5 2 1 2 3 3 5 5 7 4 2 4 5 5 4 3 4 3 2 7 9 9 9 10 9 8 8 9 8 6 6 7 7 5 5 5 7 8 13 14 14 13 12 11 10 7 3
3 4 2 3 2 3 2 4 3 3 4 7 5 4 4 4 4 3 5 3 4 3 2 8 10 9 9 8 5 4 4 5 6 8 6 5 5 4 4 3 4 5 11 4 7 5 4 4 4
1 5 4 4 3 3 3 1 5 5 10 8 8 6 4 6 4 1 7 5 5 6 7 5 7 8 9 5 6 6 5 5 6 7 8 6 5 5 5 5 6 5 4 5 4 3 3 4 5
3 3 5 6 7 6 4 7 5 9 10 9 9 8 9 8 1 6 4 6 5 8 8 9 2 2 4 5 5 5 7 7 7 6 8 6 5 5 5 6 5 5 4 4 4 4 4 4 4
3 3 7 8 8 5 5 6 5 10 5 7 7 10 10 5 3 4 4 6 8 7 8 7 9 9 2 6 7 6 6 6 6 6 8 9 7 6 7 7 8 6 6 5 5 5 4 3 2
4 7 7 5 3 6 5 4 8 14 2 10 9 8 6 1 6 5 6 8 7 6 7 10 9 8 8 8 5 4 2 3 3 5 8 10 10 9 9 8 6 6 6 6 5 4 3 4 3
4 3 5 5 1 2 5 8 9 9 2 9 10 9 3 4 3 5 6 8 7 6 7 9 9 9 9 6 5 4 4 2 6 8 6 8 10 10 7 3 5 5 4 5 5 4 3 3 3
5 2 4 8 3 1 1 6 6 7 4 7 8 8 3 6 5 4 6 7 8 7 7 7 8 9 9 9 5 5 4 3 9 6 7 7 8 7 5 4 5 6 6 6 6 3 4 3 2
5 6 5 6 5 5 9 16 8 11 9 10 8 9 2 6 4 4 7 7 8 8 8 6 5 7 9 4 5 4 4 3 5 8 7 7 7 9 6 6 6 7 6 4 5 6 4 3 4
5 5 8 6 7 6 8 12 6 7 7 9 9 7 7 8 6 6 7 7 7 7 8 9 9 7 5 4 7 4 4 6 6 6 9 8 6 4 3 3 4 5 7 8 8 4 7 3 3
6 8 8 6 3 6 8 17 8 6 4 2 5 8 8 6 8 8 9 9 9 8 9 9 8 8 6 4 4 3 4 5 7 6 7 6 6 6 6 6 4 6 2 1 6 5 4 3 6
3 7 7 9 5 6 8 9 4 3 7 9 12 11 8 7 7 7 9 8 10 11 11 10 9 8 7 7 5 5 6 4 4 5 4 4 6 6 6 10 7 7 4 6 9 10 8 6 3
5 7 6 8 7 7 4 16 12 6 2 11 8 8 7 7 7 9 11 13 13 11 10 11 12 10 9 7 6 5 7 10 6 7 4 6 10 9 8 10 8 11 10 11 8 6 5 6 5
3 6 6 7 6 4 3 4 6 7 6 5 7 9 8 7 8 9 11 14 14 12 13 10 10 10 10 7 6 6 7 8 7 9 9 9 7 7 8 8 8 8 6 7 9 7 5 4 4
6 9 7 4 1 3 1 2 5 3 1 3 3 5 6 7 7 7 6 8 11 13 15 15 11 11 10 8 8 8 7 10 8 9 5 3 6 4 6 6 5 9 11 11 8 7 8 6 5
9 7 7 7 3 8 8 10 6 5 6 3 4 7 7 6 6 7 8 10 11 13 18 19 17 16 12 9 8 9 7 9 9 8 6 6 8 6 5 5 4 5 8 8 7 8 6 6 6
3 5 4 7 4 13 8 7 4 2 6 6 6 5 9 8 7 8 7 7 5 5 6 19 16 15 13 9 10 9 7 5 6 5 3 5 7 8 13 10 7 4 5 2 5 6 5 7 7
4 1 3 6 10 5 6 5 2 1 7 7 6 5 5 6 10 10 8 7 9 8 10 12 13 14 12 9 9 10 7 7 8 4 2 4 3 6 9 8 9 5 9 8 3 8 8 9 7
2 4 4 3 5 7 6 5 3 5 11 8 7 8 7 7 5 5 8 8 9 9 10 11 11 11 11 9 8 9 8 7 7 2 1 2 2 8 9 10 12 11 13 8 6 8 9 10 6
5 5 3 2 2 6 7 5 3 6 7 6 8 9 8 5 6 6 7 8 9 8 8 8 8 8 9 10 9 9 12 8 7 1 2 4 4 5 6 7 10 16 19 13 8 10 12 12 9
4 0 3 1 8 5 5 15 5 6 5 5 8 6 6 5 4 6 7 8 7 6 6 5 6 7 9 11 11 10 10 9 7 4 5 7 5 2 3 8 11 11 13 14 12 13 12 12 11
Wind_Direction
319 345 74 43 57 67 288 302 9 21 39 255 320 102 119 90 38 183 43 139 131 147 153 157 161 158 161 156 149 151 147 148 155 163 157 151 139 131 120 113 103 108 106 101 92 87 79 76 68
348 77 46 94 77 54 292 292 93 51 232 313 63 101 64 99 99 146 118 160 148 148 148 149 155 160 164 164 167 166 164 167 170 175 171 164 153 144 139 136 122 121 112 104 97 91 82 79 68
339 53 79 95 123 160 186 268 278 291 293 70 39 63 82 61 139 182 192 150 148 157 160 164 165 169 174 172 177 178 183 180 178 174 170 168 163 157 149 148 142 131 129 125 115 109 92 83 73
46 18 31 87 208 249 173 225 214 351 356 28 119 75 46 331 164 199 148 152 153 165 166 170 171 175 177 180 183 185 191 175 181 176 181 180 181 173 163 156 152 163 148 135 126 118 101 76 68
38 59 53 79 267 302 238 263 32 52 348 5 348 62 68 358 121 146 142 161 157 166 170 173 175 177 180 185 191 187 190 182 184 185 178 182 192 194 178 172 172 178 155 143 139 135 121 100 68
38 93 62 255 281 153 306 304 80 45 348 352 59 106 210 169 150 193 170 163 173 171 174 179 181 182 184 188 192 193 196 189 194 188 184 188 196 197 190 177 192 194 177 158 159 154 156 177 79
106 81 191 234 276 52 314 316 44 87 9 335 211 92 240 221 211 187 185 163 173 175 170 178 186 187 184 187 189 192 208 197 200 196 195 196 200 209 206 184 188 197 191 173 171 170 175 208 208
107 95 22 303 296 219 319 352 162 113 266 300 126 171 223 234 195 187 194 165 162 172 174 178 181 182 185 186 192 196 198 201 191 191 197 197 213 211 207 203 196 196 193 191 195 198 190 212 250
78 64 197 266 95 238 346 3 347 314 356 348 342 165 271 74 359 147 120 142 161 182 187 184 187 188 186 181 187 191 196 193 187 187 192 195 192 218 219 200 209 206 201 195 198 204 211 217 242
87 104 223 265 242 246 302 30 322 360 350 316 346 2 26 23 18 306 296 239 221 211 206 200 194 194 186 194 192 196 191 181 183 190 191 183 193 199 210 208 212 212 205 203 202 203 221 230 251
164 188 227 285 269 221 248 315 306 356 304 232 259 271 241 185 187 238 278 324 274 284 245 229 196 192 188 202 190 198 190 187 198 196 188 186 198 207 213 202 209 206 218 197 195 205 210 219 242
221 247 224 262 329 290 261 217 294 212 234 246 264 255 243 231 265 117 110 97 58 38 10 208 225 199 190 193 189 190 192 202 207 205 195 196 207 194 198 207 201 193 201 199 191 190 203 224 253
214 273 297 276 287 257 262 235 240 260 258 263 272 286 258 266 199 100 116 82 44 36 14 19 32 294 279 203 204 198 207 206 206 207 209 201 202 204 193 204 193 189 198 195 203 199 194 217 262
295 269 276 282 266 258 254 279 127 275 255 264 260 256 245 279 184 138 98 79 64 42 24 11 35 22 295 264 229 208 209 211 212 222 213 193 210 197 199 190 189 186 184 182 187 207 190 202 253
275 308 327 283 289 229 166 302 225 250 273 252 252 246 278 67 106 122 94 79 79 60 28 23 16 26 21 347 291 266 201 247 260 242 233 209 206 218 206 203 195 177 182 175 164 177 167 202 183
344 45 353 292 341 324 132 260 277 278 241 248 247 250 246 114 70 65 85 93 88 79 58 22 21 18 6 352 342 301 235 161 261 244 237 221 206 207 194 185 174 163 170 185 165 159 188 213 218
1 272 267 307 353 21 53 274 279 317 274 269 248 259 104 119 84 61 69 76 68 66 62 49 16 5 356 342 340 335 293 225 254 264 244 213 218 218 187 191 220 163 163 172 177 158 146 167 217
270 296 258 257 289 335 296 279 277 287 295 281 279 281 171 136 95 49 60 57 50 41 32 31 31 13 337 333 324 325 310 255 231 239 235 214 218 212 182 197 176 161 153 155 167 161 166 172 147
243 238 250 256 261 293 283 289 292 275 283 293 287 311 108 84 22 22 36 33 36 36 28 19 17 1 339 338 347 327 315 310 290 252 246 230 220 99 138 191 184 146 173 175 176 165 169 136 131
278 290 286 277 301 325 291 291 266 259 273 314 341 85 71 56 31 19 23 23 22 12 8 12 11 351 340 326 314 289 282 281 278 271 251 216 165 161 167 157 144 118 100 319 189 171 129 119 170
274 277 295 295 327 246 299 297 110 301 287 58 53 73 62 57 41 18 18 12 15 12 1 357 343 350 342 334 309 310 329 295 284 288 287 164 169 157 165 149 142 131 170 224 215 177 157 148 173
328 347 316 305 353 302 79 294 309 256 351 64 37 50 50 36 25 22 16 13 8 359 352 351 345 340 334 331 323 309 340 324 299 289 265 180 192 191 151 154 172 176 182 211 216 170 159 127 150
330 341 318 279 270 317 230 258 292 26 45 50 37 31 22 22 23 13 10 3 353 351 339 332 332 329 312 325 321 304 328 327 302 296 279 188 197 182 167 191 199 185 184 169 183 157 155 116 134
311 347 322 333 20 286 53 40 287 330 171 107 9 351 5 1 355 348 343 360 357 351 347 337 324 321 313 328 315 301 302 322 317 306 283 197 178 172 193 193 175 200 175 181 170 158 159 146 119
11 20 339 326 7 268 341 333 276 59 57 105 39 16 357 1 353 337 343 7 352 355 348 331 333 315 325 309 317 295 293 320 313 307 280 177 177 181 198 150 120 161 174 179 163 148 142 132 129
273 114 174 275 255 296 310 252 206 65 56 38 46 26 356 342 333 327 334 320 317 303 328 308 317 312 310 323 308 289 293 320 317 303 277 186 179 157 151 145 108 108 147 126 207 133 134 128 124
310 199 242 260 279 275 231 277 186 135 27 0 338 342 347 4 354 345 317 333 320 317 307 301 302 310 308 306 298 298 304 325 321 272 203 224 162 140 157 154 133 164 119 129 182 137 130 124 118
78 262 318 258 269 277 277 271 289 15 347 315 326 329 311 294 293 290 323 329 317 314 313 310 310 305 296 301 310 313 316 327 324 315 295 259 210 145 155 171 170 151 129 129 156 140 124 118 110
330 313 304 299 255 284 300 265 185 188 226 307 301 292 285 307 318 315 317 321 328 326 329 325 316 318 333 333 305 325 343 331 337 278 163 258 277 186 167 156 153 155 145 136 158 141 126 115 111
216 170 89 170 292 263 260 278 225 188 207 256 277 282 276 271 283 316 318 317 327 338 319 326 322 342 338 340 328 332 340 332 335 310 217 210 227 278 186 149 125 131 137 126 154 133 125 124 127